星链-1398 (STARLINK-1398 )

导读 | 星芒AI

STARLINK-1398 是 SpaceX Starlink 项目中的一颗低轨通信卫星,属于第 1398 批次发射的星链卫星之一。该卫星主要用于提供全球范围内的高速互联网服务,特别是在偏远和网络覆盖不足的地区。它运行在约 550 公里的轨道高度,采用先进的推进系统和激光通信技术,以提升网络连接的稳定性和效率。作为星链星座的一部分,STARLINK-1398 有助于构建一个全球性的卫星互联网网络,支持多种应用场景,包括民用、科研和应急通信等。

基本信息
目录编号:
45699
目录名称:
STARLINK-1398
国际标识:
2020-035AU
轨道中心:
EARTH
卫星名称:
星链-1398
卫星全名:
星链-1398 (STARLINK-1398 )
卫星状态:
在轨 (已飞行2021 天)
发射日期:
2020-06-04 UTC
国别 :
美国 (US)
星等 :
--
轨道信息
数据来源 国际轨道数据
星历时间: 2025-12-15T13:41:38+0800
20小时前
查看轨道信息
半长轴: 6767.663km
偏心率: 0.0002788
轨道倾角: 53.049°
近地点辐角 8.613°
升交点赤经 359.827°
平近点角 351.493°
近地点: 387.641km
远地点: 391.415km
周期: 92.346分钟
每日圈数: 15.593539
详细信息
固有亮度:
5
最大亮度:
2.5
卫星平台:
Starlink V1.0
覆盖范围:
全球
运营商:
太空探索技术公司
运营商所在国:
美国
制造商(研发单位):
太空探索技术公司
制造商所在国:
美国
使用方式:
暂无
卫星简介
星链(Starlink)计划是由太空探索技术公司(SpaceX)提出的一个巨型低轨卫星互联网星座项目,计划在2019年至2024年间在太空搭建由约1.2万颗卫星组成的“星链”网络,其中1584颗将部署在地球上空550千米处的近地轨道,并从2020年开始工作。该卫星仍在工作。
2D轨道图
3D轨道图
轨道高度分析图
轨道倾角分析图
轨道综合分析图
查看轨道综合分析图